Disclaimer

Please do not use the information listed here in-flight or in-navigation, as they are not provided to us by the airports but are provided by volunteers, so they might be outdated.

Search


Regions


Airport information page

Radio informations:
Tower (TWR) - 118.7 MHz
Automatic Terminal Information Service (ATIS) - 117.7 MHz

Airport informations:
Latitude: 66° 33' 53.36" N
Longitude: 025° 49' 49.48" E
Elevation: 642 feet - 196 meters
Operating hours: N/A
Operating agency: Military-civil joint use airport
Timezone: UTC+2(+3DT)
Fuel: Jet A1, without icing nhibitor.

100/130 MIL Spec, low lead, aviation gasoline (BLUE)

Runway information:
03/21 - 9849 x 197 feet< - >3002 x 60 meters

Recent METARs:
EFRO 160220Z AUTO 35005KT 4500 -SN SCT027 BKN032 OVC038 M13/M14 Q0990
EFRO 160250Z AUTO 34004KT 7000 -SN SCT031 BKN039 OVC045 M13/M15 Q0990
EFRO 160320Z AUTO 35005KT 4600 -SN FEW022 SCT029 BKN035 OVC049 M13/M14 Q0990

Airport on the map: